Location: Unspecified
(0.0000°N, 0.0000°E)
Time: 05:41:57
(UTC+00:00)

A-11 Canister half - All Passes

Search period start: 06 December 2016 00:00
Search period end: 16 December 2016 00:00
Orbit: 1514 x 1685 km, 47.2° (Epoch: 05 December)

Date Brightness Start Highest point End Pass type
(mag) Time Alt. Az. Time Alt. Az. Time Alt. Az.
06 Dec - 06:31:12 10° NNW 06:39:59 34° NE 06:48:31 10° ESE daylight
06 Dec - 08:35:16 10° NW 08:44:50 53° SW 08:54:09 10° SSE daylight
06 Dec - 17:22:17 10° SSE 17:25:06 11° SE 17:27:54 10° ESE daylight
06 Dec - 19:21:00 10° SSW 19:30:19 70° SE 19:39:55 10° NE visible
06 Dec - 21:28:00 10° W 21:35:15 24° NW 21:42:44 10° N visible
07 Dec - 06:08:29 10° N 06:17:01 31° NE 06:25:20 10° ESE daylight
07 Dec - 08:12:11 10° NW 08:21:56 58° SW 08:31:22 10° SSE daylight
07 Dec - 18:58:11 10° SSW 19:07:24 64° SE 19:16:56 10° NE visible
07 Dec - 21:04:44 10° W 21:12:18 27° NW 21:20:05 10° N visible
08 Dec - 05:45:47 10° N 05:54:03 29° NE 06:02:06 10° ESE daylight
08 Dec - 07:49:09 10° NW 07:59:00 63° SW 08:08:35 10° SSE daylight
08 Dec - 10:03:29 10° SW 10:04:26 10° SW 10:05:23 10° SW daylight
08 Dec - 18:35:23 10° SSW 18:44:31 59° SE 18:53:54 10° NE visible
08 Dec - 20:41:31 10° WSW 20:49:21 29° NW 20:57:25 10° N visible
09 Dec - 05:23:08 10° N 05:31:05 26° NE 05:38:51 10° E visible
09 Dec - 07:26:08 10° NW 07:36:05 69° SW 07:45:45 10° SSE daylight
09 Dec - 09:38:19 10° WSW 09:41:25 12° SW 09:44:31 10° SSW daylight
09 Dec - 18:12:36 10° SSW 18:21:37 54° SE 18:30:52 10° NE visible
09 Dec - 20:18:21 10° WSW 20:26:24 32° NW 20:34:43 10° N visible
10 Dec - 05:00:29 10° N 05:08:06 24° NE 05:15:33 10° E visible
10 Dec - 07:03:07 10° NW 07:13:10 74° SW 07:22:54 10° SSE daylight
10 Dec - 09:14:10 10° WSW 09:18:25 13° SW 09:22:38 10° SSW daylight
10 Dec - 17:49:51 10° SSW 17:58:44 49° SE 18:07:48 10° ENE daylight
10 Dec - 19:55:12 10° WSW 20:03:27 35° NW 20:12:00 10° NNE visible
11 Dec - 04:37:54 10° N 04:45:06 22° NE 04:52:12 10° E visible
11 Dec - 06:40:09 10° NW 06:50:15 80° SW 07:00:04 10° SE daylight
11 Dec - 08:50:18 10° WSW 08:55:25 15° SW 09:00:29 10° SSW daylight
11 Dec - 17:27:06 10° SSW 17:35:50 45° SE 17:44:43 10° ENE daylight
11 Dec - 19:32:06 10° WSW 19:40:32 38° NW 19:49:15 10° NNE visible
12 Dec - 04:15:21 10° N 04:22:06 20° NE 04:28:46 10° E visible
12 Dec - 06:17:10 10° NW 06:27:20 87° SW 06:37:10 10° SE daylight
12 Dec - 08:26:36 10° W 08:32:25 17° SW 08:38:11 10° S daylight
12 Dec - 17:04:22 10° SSW 17:12:56 41° SE 17:21:37 10° ENE daylight
12 Dec - 19:09:00 10° WSW 19:17:37 42° NW 19:26:30 10° NNE visible
13 Dec - 03:52:51 10° N 03:59:06 18° NE 04:05:16 10° E visible
13 Dec - 05:54:14 10° NW 06:04:23 87° NE 06:14:17 10° SE daylight
13 Dec - 08:03:01 10° W 08:09:26 19° SW 08:15:47 10° S daylight
13 Dec - 16:41:40 10° SSW 16:50:01 37° SE 16:58:29 10° ENE daylight
13 Dec - 18:45:57 10° WSW 18:54:42 45° NW 19:03:43 10° NNE visible
14 Dec - 03:30:26 10° N 03:36:05 16° NE 03:41:40 10° E visible
14 Dec - 05:31:19 10° NW 05:41:28 81° NE 05:51:21 10° SE visible
14 Dec - 07:39:31 10° W 07:46:27 21° SW 07:53:19 10° S daylight
14 Dec - 16:18:59 10° SSW 16:27:06 34° SE 16:35:19 10° ENE daylight
14 Dec - 18:22:55 10° WSW 18:31:47 49° NW 18:40:56 10° NNE visible
15 Dec - 03:08:07 10° NNE 03:13:04 14° NE 03:17:57 10° ENE visible
15 Dec - 05:08:24 10° NW 05:18:32 75° NE 05:28:26 10° SE visible
15 Dec - 07:16:05 10° W 07:23:29 23° SW 07:30:48 10° S daylight
15 Dec - 15:56:20 10° S 16:04:12 31° SE 16:12:08 10° ENE daylight
15 Dec - 17:59:55 10° SW 18:08:53 54° NW 18:18:07 10° NNE daylight
